Tracking 28126 objects as of 1-Oct-2023
HD Live streaming from Space Station
objects crossing your sky now

GLOBALSTAR M077

Track GLOBALSTAR M077 now!
10-day predictions
GLOBALSTAR M077 is classified as:


NORAD ID: 37191
Int'l Code: 2010-054D
Perigee: 1,420.3 km
Apogee: 1,421.2 km
Inclination: 52.0 °
Period: 114.1 minutes
Semi major axis: 7791 km
RCS: 4.923 m2 (large)
Launch date: October 19, 2010
Source: Globalstar (GLOB)
Launch site: TYURATAM MISSILE AND SPACE COMPLEX (TTMTR)
Your satellite tracking list
Your tracking list is empty




NASA's NSSDC Master Catalog

Two Line Element Set (TLE):
1 37191U 10054D   23273.11796076 -.00000088  00000-0  86536-4 0  9994
2 37191  52.0062 201.8529 0000625  73.4807  29.0592 12.62264102598080
Source of the keplerian elements: AFSPC